DW6723 Weather Reports


Display with metric or nautical units.
time (UTC)temp
F
wind
direction
speed
MPH
gust
MPH
rain 1hr
in
rain 24hr
in
rain mn
in
humidity
%
barometer
mb
20260903153032 66 348 3.0 5.0 0.00 0.19 0.19 92 1013.5
20260903151530 66 336 3.0 5.0 0.00 0.19 0.19 93 1013.6
20260903150029 66 325 2.0 4.0 0.00 0.19 0.19 93 1013.8
20260903144529 66 307 0.0 3.0 0.00 0.19 0.19 95 1014.0
20260903143015 65 9 1.0 3.0 0.00 0.19 0.19 95 1014.0
20260903141513 65 126 0.0 2.0 0.00 0.19 0.19 96 1014.3
20260903140016 64 103 0.0 2.0 0.00 0.19 0.19 96 1014.3
20260903134513 64 121 0.0 3.0 0.00 0.19 0.19 96 1014.3
20260903133017 64 122 1.0 2.0 0.01 0.19 0.19 96 1014.3
20260903131511 64 105 1.0 3.0 0.01 0.19 0.19 96 1014.4
20260903130010 63 74 1.0 2.0 0.02 0.19 0.19 96 1014.4
20260903124516 63 74 1.0 2.0 0.02 0.19 0.19 96 1014.6
20260903123053 63 81 1.0 3.0 0.02 0.18 0.18 96 1014.9
20260903121551 63 82 1.0 3.0 0.04 0.18 0.18 96 1015.0
20260903120053 63 86 2.0 3.0 0.04 0.17 0.17 95 1015.2
20260903114549 63 80 0.0 3.0 0.06 0.17 0.17 95 1015.4
20260903113051 63 71 1.0 2.0 0.09 0.16 0.16 95 1015.4
20260903111548 63 62 1.0 4.0 0.10 0.14 0.14 95 1015.3
20260903110053 63 76 0.0 2.0 0.11 0.13 0.13 95 1015.5
20260903104550 63 88 3.0 5.0 0.11 0.11 0.11 94 1015.2
20260903103030 63 332 2.0 4.0 0.07 0.07 0.07 94 1015.7
20260903101535 63 98 1.0 2.0 0.04 0.04 0.04 94 1015.2
20260903100008 63 328 1.0 2.0 0.01 0.01 0.01 93 1015.5
20260903094505 63 314 1.0 3.0 0.00 0.00 0.00 93 1015.6
20260903093104 63 238 0.0 2.0 0.00 0.00 0.00 92 1015.6
20260903091546 63 259 1.0 4.0 0.00 0.00 0.00 90 1015.6
20260903090027 64 296 0.0 5.0 0.00 0.00 0.00 87 1015.6
20260903084527 65 179 1.0 7.0 0.00 0.00 0.00 84 1015.6
20260903083035 65 143 2.0 8.0 0.00 0.00 0.00 84 1015.3
20260903081531 65 168 2.0 6.0 0.00 0.00 0.00 85 1015.5
20260903080021 65 176 1.0 5.0 0.00 0.00 0.00 86 1015.8
20260903074520 65 167 2.0 5.0 0.00 0.00 0.00 88 1016.1
20260903073020 65 147 2.0 5.0 0.00 0.00 0.00 89 1016.0
20260903071518 65 162 2.0 6.0 0.00 0.00 0.00 89 1016.2
20260903070005 65 130 3.0 4.0 0.00 0.00 0.00 89 1016.5
20260903064502 65 152 1.0 4.0 0.00 0.00 0.00 89 1017.1
20260903063125 65 221 0.0 3.0 0.00 0.00 0.00 89 1017.5
20260903061559 65 191 0.0 2.0 0.00 0.00 0.00 88 1017.9
20260903060107 65 213 1.0 3.0 0.00 0.00 0.00 88 1018.2
20260903054556 65 189 0.0 4.0 0.00 0.00 0.00 88 1018.3
20260903053055 65 180 2.0 5.0 0.00 0.00 0.00 88 1018.1
20260903051555 65 167 2.0 7.0 0.00 0.00 0.00 88 1018.2
20260903044542 65 196 1.0 3.0 0.00 0.00 0.00 88 1018.6
20260903043042 65 166 1.0 4.0 0.00 0.00 0.00 88 1018.5
20260903041542 65 163 1.0 3.0 0.00 0.00 0.00 88 1018.5
20260903040044 65 150 1.0 4.0 0.00 0.00 0.00 88 1018.6
20260903034535 65 135 2.0 5.0 0.00 0.00 0.00 88 1018.9
20260903033038 65 136 0.0 3.0 0.00 0.00 0.00 88 1019.3
20260903031534 65 198 1.0 4.0 0.00 0.00 0.00 88 1019.3
20260903030017 65 192 1.0 2.0 0.00 0.00 0.00 88 1019.3
20260903024515 65 207 0.0 3.0 0.00 0.00 0.00 88 1019.3
20260903023002 65 174 0.0 3.0 0.00 0.00 0.00 89 1019.3
20260903021505 65 177 0.0 4.0 0.00 0.00 0.00 88 1019.3
20260903020001 65 360 0.0 2.0 0.00 0.00 0.00 88 1019.7
20260903014500 65 184 1.0 5.0 0.00 0.00 0.00 88 1019.7
20260903013101 65 136 2.0 5.0 0.00 0.00 0.00 88 1019.4
20260903011609 65 148 2.0 5.0 0.00 0.00 0.00 88 1019.3
20260903010058 65 166 0.0 5.0 0.00 0.00 0.00 88 1019.5
20260903004557 65 145 1.0 6.0 0.00 0.00 0.00 89 1019.7
20260903003044 65 178 3.0 6.0 0.00 0.00 0.00 91 1019.8
20260903001543 65 141 3.0 5.0 0.00 0.00 0.00 93 1019.9
20260903000042 64 151 1.0 3.0 0.00 0.00 0.00 92 1020.0
20260902234545 65 109 2.0 3.0 0.00 0.00 0.00 92 1020.2
20260902233049 65 119 0.0 3.0 0.00 0.00 0.00 91 1020.5
20260902231550 65 115 3.0 4.0 0.00 0.00 0.00 91 1020.5
20260902230038 65 125 2.0 8.0 0.00 0.00 0.00 91 1020.7
20260902224544 65 105 5.0 9.0 0.00 0.00 0.00 90 1020.5
20260902223016 65 360 3.0 8.0 0.00 0.00 0.00 91 1020.9
20260902221519 65 115 7.0 9.0 0.00 0.00 0.00 90 1021.0
20260902220008 65 103 5.0 9.0 0.00 0.00 0.00 90 1021.1
20260902214504 65 99 5.0 9.0 0.00 0.00 0.00 90 1021.1
20260902213004 66 111 5.0 10.0 0.00 0.00 0.00 89 1020.9
20260902211501 66 119 6.0 10.0 0.00 0.00 0.00 88 1020.8
20260902210002 66 102 5.0 10.0 0.00 0.00 0.00 87 1020.9
20260902204600 66 107 8.0 10.0 0.00 0.00 0.00 87 1021.0
20260902203058 66 111 6.0 11.0 0.00 0.00 0.00 87 1021.2
20260902201555 65 85 9.0 13.0 0.00 0.00 0.00 88 1021.3
20260902200038 66 83 9.0 13.0 0.00 0.00 0.00 87 1021.7
20260902194540 66 360 6.0 10.0 0.00 0.00 0.00 86 1021.8
20260902193026 66 107 7.0 10.0 0.00 0.00 0.00 86 1021.8
20260902191535 66 98 7.0 13.0 0.00 0.00 0.00 86 1021.7
20260902190025 66 111 9.0 14.0 0.00 0.00 0.00 85 1021.7
20260902184524 66 96 10.0 16.0 0.00 0.00 0.00 85 1021.6
20260902183026 66 92 9.0 17.0 0.00 0.00 0.00 85 1021.6
20260902181523 66 77 8.0 13.0 0.00 0.00 0.00 86 1021.8
20260902180022 65 83 8.0 11.0 0.00 0.00 0.00 86 1021.9
20260902174523 65 84 9.0 14.0 0.00 0.00 0.00 86 1021.9
20260902173009 65 72 11.0 14.0 0.00 0.00 0.00 86 1021.9
20260902171509 65 91 10.0 14.0 0.00 0.00 0.00 87 1022.0
20260902170010 65 81 8.0 14.0 0.00 0.00 0.00 87 1022.0
20260902164509 65 80 10.0 14.0 0.00 0.00 0.00 86 1021.9
20260902163007 65 75 9.0 14.0 0.00 0.00 0.00 87 1022.0
20260902161516 65 69 10.0 14.0 0.00 0.00 0.00 89 1022.2
20260902160008 65 86 10.0 15.0 0.00 0.00 0.00 90 1022.6
20260902154515 65 92 8.0 12.0 0.00 0.00 0.00 91 1022.6